Voltar ao catálogo

CZ-6A DEB

AtivoSSO
NORAD 54443·DEBRIS·🇨🇳 China

Lançado Nov 11, 2022 de Taiyuan Satellite Launch Center

Loading…

Próximas Passagens (próximas 24 horas)

TLE

AtualizadoSource: Space-Track

Época: Sep 14, 2026, 12:11 UTC

1 54443U 22151FT  26257.50773473  .00000956  00000-0  44944-3 0  9997
2 54443  98.8069 279.4700 0017996  56.4549 303.8345 14.22327638198648

Acompanhe CZ-6A DEB em tempo real com AllMySat

Download on the App Store